When you browse on this site, cookies collect data to enhance your experience and personalize the content and advertising you see.
Visit our Privacy Policy to learn more. By continuing to use the site, you agree to this use of cookies and data.
  • In Portugal
  • List of Countries
  • For 7 days
  • Water Temperature
  • Weather Map
  • Weather Widgets
  • user-avatar
    Login

    Hourly Weather Kalgoorlie

    Today, 22 September, Sunday

    Time Temperature Precipitation Wind Pressure Humidity
    00:00 +9°C° 0 mm 3 mps 738 mmHg 61%
    01:00 +8°C° 0 mm 4 mps 738 mmHg 69%
    02:00 +7°C° 0 mm 4 mps 738 mmHg 78%
    03:00 +7°C° 0 mm 4 mps 738 mmHg 81%
    04:00 +6°C° 0 mm 4 mps 739 mmHg 84%
    05:00 +7°C° 0 mm 3 mps 739 mmHg 87%
    06:00 +7°C° 0 mm 4 mps 739 mmHg 79%
    07:00 +8°C° 0 mm 4 mps 740 mmHg 71%
    08:00 +10°C° 0 mm 5 mps 740 mmHg 62%
    09:00 +12°C° 0 mm 4 mps 740 mmHg 56%
    10:00 +14°C° 0 mm 4 mps 740 mmHg 50%
    11:00 +16°C° 0 mm 3 mps 740 mmHg 44%
    12:00 +17°C° 0 mm 3 mps 739 mmHg 40%
    13:00 +18°C° 0 mm 3 mps 739 mmHg 36%
    14:00 +19°C° 0 mm 3 mps 738 mmHg 30%
    15:00 +19°C° 0 mm 3 mps 738 mmHg 30%
    16:00 +19°C° 0 mm 3 mps 738 mmHg 30%
    17:00 +19°C° 0 mm 4 mps 738 mmHg 29%
    18:00 +17°C° 0 mm 3 mps 739 mmHg 32%
    19:00 +16°C° 0 mm 3 mps 739 mmHg 34%
    20:00 +14°C° 0 mm 3 mps 740 mmHg 36%
    21:00 +13°C° 0 mm 4 mps 740 mmHg 41%
    22:00 +13°C° 0 mm 5 mps 740 mmHg 47%
    23:00 +11°C° 0 mm 6 mps 741 mmHg 52%

    Tomorrow, 23 September, Monday

    Time Temperature Precipitation Wind Pressure Humidity
    00:00 +10°C° 0 mm 5 mps 740 mmHg 55%
    01:00 +9°C° 0 mm 5 mps 740 mmHg 59%
    02:00 +9°C° 0 mm 5 mps 740 mmHg 63%
    03:00 +8°C° 0 mm 5 mps 740 mmHg 67%
    04:00 +8°C° 0 mm 4 mps 740 mmHg 70%
    05:00 +7°C° 0 mm 4 mps 740 mmHg 74%
    06:00 +8°C° 0 mm 5 mps 740 mmHg 69%
    07:00 +10°C° 0 mm 5 mps 740 mmHg 64%
    08:00 +11°C° 0 mm 6 mps 740 mmHg 59%
    09:00 +14°C° 0 mm 6 mps 740 mmHg 51%
    10:00 +17°C° 0 mm 5 mps 740 mmHg 42%
    11:00 +20°C° 0 mm 5 mps 740 mmHg 34%
    12:00 +21°C° 0 mm 4 mps 739 mmHg 31%
    13:00 +21°C° 0 mm 4 mps 738 mmHg 28%
    14:00 +22°C° 0 mm 3 mps 737 mmHg 25%
    15:00 +22°C° 0 mm 3 mps 737 mmHg 24%
    16:00 +22°C° 0 mm 4 mps 737 mmHg 24%
    17:00 +22°C° 0 mm 4 mps 737 mmHg 24%
    18:00 +21°C° 0 mm 4 mps 737 mmHg 26%
    19:00 +19°C° 0 mm 4 mps 737 mmHg 29%
    20:00 +18°C° 0 mm 4 mps 738 mmHg 31%
    21:00 +17°C° 0 mm 4 mps 738 mmHg 33%
    22:00 +17°C° 0 mm 4 mps 737 mmHg 35%
    23:00 +15°C° 0 mm 4 mps 737 mmHg 37%

    Day after tomorrow, 24 September, Tuesday

    Time Temperature Precipitation Wind Pressure Humidity
    00:00 +15°C° 0 mm 5 mps 737 mmHg 38%
    01:00 +14°C° 0 mm 5 mps 737 mmHg 40%
    02:00 +14°C° 0 mm 6 mps 736 mmHg 41%
    03:00 +13°C° 0 mm 5 mps 736 mmHg 43%
    04:00 +13°C° 0 mm 5 mps 736 mmHg 44%
    05:00 +12°C° 0 mm 5 mps 736 mmHg 45%
    06:00 +14°C° 0 mm 6 mps 736 mmHg 42%
    07:00 +15°C° 0 mm 7 mps 737 mmHg 39%
    08:00 +17°C° 0 mm 8 mps 737 mmHg 35%
    09:00 +20°C° 0 mm 8 mps 736 mmHg 31%
    10:00 +22°C° 0 mm 8 mps 736 mmHg 26%
    11:00 +26°C° 0 mm 8 mps 736 mmHg 21%
    12:00 +26°C° 0 mm 8 mps 735 mmHg 20%
    13:00 +27°C° 0 mm 7 mps 734 mmHg 19%
    14:00 +28°C° 0 mm 6 mps 734 mmHg 18%
    15:00 +28°C° 0 mm 6 mps 734 mmHg 18%
    16:00 +28°C° 0 mm 5 mps 733 mmHg 19%
    17:00 +28°C° 0 mm 5 mps 733 mmHg 19%
    18:00 +26°C° 0 mm 5 mps 733 mmHg 21%
    19:00 +23°C° 0 mm 5 mps 734 mmHg 24%
    20:00 +22°C° 0 mm 5 mps 734 mmHg 26%
    21:00 +21°C° 0 mm 5 mps 733 mmHg 27%
    22:00 +21°C° 0 mm 5 mps 733 mmHg 28%
    23:00 +20°C° 0 mm 6 mps 733 mmHg 28%

    25 September, Wednesday

    Time Temperature Precipitation Wind Pressure Humidity
    00:00 +20°C° 0 mm 6 mps 733 mmHg 28%
    01:00 +19°C° 0 mm 6 mps 732 mmHg 27%
    02:00 +19°C° 0 mm 5 mps 732 mmHg 27%
    03:00 +17°C° 0 mm 5 mps 732 mmHg 28%
    04:00 +17°C° 0 mm 5 mps 732 mmHg 29%
    05:00 +17°C° 0 mm 4 mps 732 mmHg 30%
    06:00 +19°C° 0 mm 5 mps 732 mmHg 31%
    07:00 +21°C° 0 mm 6 mps 733 mmHg 32%
    08:00 +22°C° 0 mm 7 mps 733 mmHg 32%
    09:00 +26°C° 0 mm 8 mps 733 mmHg 29%
    10:00 +28°C° 0 mm 8 mps 733 mmHg 26%
    11:00 +31°C° 0 mm 8 mps 733 mmHg 22%
    12:00 +31°C° 0 mm 8 mps 732 mmHg 22%
    13:00 +30°C° 0 mm 7 mps 731 mmHg 21%
    14:00 +30°C° 0 mm 6 mps 731 mmHg 21%
    15:00 +29°C° 0 mm 5 mps 731 mmHg 22%
    16:00 +29°C° 0 mm 5 mps 731 mmHg 23%
    17:00 +29°C° 0 mm 4 mps 731 mmHg 23%
    18:00 +27°C° 0 mm 3 mps 731 mmHg 26%
    19:00 +26°C° 0 mm 3 mps 731 mmHg 29%
    20:00 +24°C° 0 mm 2 mps 732 mmHg 31%
    21:00 +24°C° 0 mm 3 mps 732 mmHg 31%
    22:00 +22°C° 0 mm 3 mps 732 mmHg 30%
    23:00 +22°C° 0 mm 4 mps 731 mmHg 29%

    26 September, Thursday

    Time Temperature Precipitation Wind Pressure Humidity
    00:00 +20°C° 0 mm 4 mps 731 mmHg 35%
    01:00 +19°C° 0 mm 4 mps 731 mmHg 40%
    02:00 +17°C° 0 mm 4 mps 731 mmHg 46%
    03:00 +17°C° 0 mm 4 mps 731 mmHg 48%
    04:00 +17°C° 0 mm 4 mps 731 mmHg 50%
    05:00 +17°C° 0 mm 4 mps 731 mmHg 52%
    06:00 +17°C° 0 mm 4 mps 731 mmHg 52%
    07:00 +18°C° 0 mm 4 mps 732 mmHg 51%
    08:00 +19°C° 0 mm 5 mps 732 mmHg 50%
    09:00 +21°C° 0 mm 4 mps 732 mmHg 44%
    10:00 +23°C° 0 mm 4 mps 732 mmHg 38%
    11:00 +26°C° 0 mm 3 mps 731 mmHg 31%
    12:00 +28°C° 0 mm 3 mps 731 mmHg 28%
    13:00 +29°C° 0 mm 3 mps 730 mmHg 25%
    14:00 +30°C° 0 mm 3 mps 730 mmHg 22%
    15:00 +28°C° 0.2 mm 4 mps 729 mmHg 31%
    16:00 +26°C° 0.2 mm 5 mps 729 mmHg 40%
    17:00 +22°C° 0.2 mm 6 mps 729 mmHg 48%
    18:00 +22°C° 0.1 mm 6 mps 730 mmHg 52%
    19:00 +21°C° 0.1 mm 6 mps 730 mmHg 55%
    20:00 +20°C° 0.1 mm 5 mps 731 mmHg 58%
    21:00 +20°C° 0.2 mm 5 mps 731 mmHg 62%
    22:00 +19°C° 0.2 mm 5 mps 731 mmHg 65%
    23:00 +19°C° 0.2 mm 5 mps 731 mmHg 69%

    27 September, Friday

    Time Temperature Precipitation Wind Pressure Humidity
    00:00 +17°C° 0.2 mm 6 mps 730 mmHg 71%
    01:00 +16°C° 0.2 mm 7 mps 730 mmHg 73%
    02:00 +16°C° 0.2 mm 8 mps 730 mmHg 76%
    03:00 +15°C° 0.1 mm 8 mps 730 mmHg 76%
    04:00 +15°C° 0.1 mm 7 mps 730 mmHg 76%
    05:00 +15°C° 0.1 mm 7 mps 729 mmHg 75%
    06:00 +16°C° 0 mm 6 mps 729 mmHg 69%
    07:00 +19°C° 0 mm 6 mps 730 mmHg 63%
    08:00 +20°C° 0 mm 5 mps 730 mmHg 56%
    09:00 +22°C° 0 mm 5 mps 730 mmHg 47%
    10:00 +26°C° 0 mm 5 mps 729 mmHg 38%
    11:00 +28°C° 0 mm 5 mps 729 mmHg 29%
    12:00 +29°C° 0 mm 5 mps 729 mmHg 27%
    13:00 +30°C° 0 mm 4 mps 728 mmHg 26%
    14:00 +30°C° 0 mm 4 mps 727 mmHg 24%
    15:00 +29°C° 0.1 mm 4 mps 727 mmHg 28%
    16:00 +28°C° 0.1 mm 5 mps 727 mmHg 32%
    17:00 +26°C° 0.1 mm 5 mps 727 mmHg 36%
    18:00 +25°C° 0 mm 5 mps 728 mmHg 40%
    19:00 +23°C° 0 mm 5 mps 728 mmHg 44%
    20:00 +22°C° 0 mm 5 mps 729 mmHg 49%
    21:00 +21°C° 0 mm 5 mps 729 mmHg 58%
    22:00 +19°C° 0 mm 5 mps 729 mmHg 67%
    23:00 +17°C° 0 mm 5 mps 729 mmHg 76%
    Show more